Location: Omaha
(41.2590°N, 95.9380°W)
Time: 07:20:25
(UTC-06:00)

Vanguard 3 - All Passes

Search period start: 14 December 2017 00:00
Search period end: 24 December 2017 00:00
Orbit: 509 x 3263 km, 33.3° (Epoch: 13 December)

Date Brightness Start Highest point End Pass type
(mag) Time Alt. Az. Time Alt. Az. Time Alt. Az.
14 Dec - 11:35:27 10° SSW 11:38:25 15° SSE 11:40:53 10° SE daylight
14 Dec - 13:46:07 10° SW 13:49:26 25° S 13:52:31 10° ESE daylight
14 Dec - 15:57:23 10° WSW 16:00:16 21° S 16:03:39 10° SE daylight
15 Dec - 10:22:46 10° S 10:24:55 12° SSE 10:26:47 10° SE daylight
15 Dec - 12:32:31 10° SW 12:36:18 23° S 12:39:22 10° ESE daylight
15 Dec - 14:44:03 10° WSW 14:47:09 24° S 14:50:19 10° SE daylight
15 Dec - 16:56:14 10° SW 16:58:07 13° SSW 17:00:14 10° S daylight
16 Dec - 11:18:42 10° SW 11:22:59 20° SSE 11:26:15 10° ESE daylight
16 Dec - 13:30:26 10° WSW 13:34:04 27° S 13:37:14 10° ESE daylight
16 Dec - 15:42:23 10° WSW 15:44:53 17° SSW 15:47:36 10° SSE daylight
17 Dec - 10:04:54 10° SSW 10:09:27 17° SSE 10:12:54 10° SE daylight
17 Dec - 12:16:24 10° SW 12:20:55 27° S 12:24:19 10° ESE daylight
17 Dec - 14:28:39 10° WSW 14:31:47 23° S 14:34:45 10° SE daylight
18 Dec - 08:51:40 10° S 08:55:36 13° SSE 08:58:48 10° SE daylight
18 Dec - 11:02:03 10° SW 11:07:35 26° S 11:11:26 10° ESE daylight
18 Dec - 13:14:40 10° WSW 13:18:43 28° S 13:21:58 10° SE daylight
18 Dec - 15:27:27 10° SW 15:29:26 14° SSW 15:31:29 10° SSE daylight
19 Dec - 09:47:34 10° SSW 09:53:57 23° SSE 09:58:21 10° ESE daylight
19 Dec - 12:00:14 10° WSW 12:05:32 32° S 12:09:15 10° ESE daylight
19 Dec - 14:13:11 10° WSW 14:16:22 21° SSW 14:19:14 10° SE daylight
20 Dec - 08:33:20 10° SSW 08:40:00 19° SSE 08:44:49 10° ESE daylight
20 Dec - 10:45:24 10° SW 10:52:07 31° S 10:56:30 10° ESE daylight
20 Dec - 12:58:48 10° WSW 13:03:19 30° S 13:06:44 10° SE daylight
20 Dec - 15:12:42 10° SW 15:13:56 11° SSW 15:15:10 10° S daylight
21 Dec - 07:20:02 10° S 07:25:42 14° SSE 07:30:12 10° SE visible
21 Dec - 09:30:22 10° SW 09:38:24 29° SSE 09:43:34 10° ESE daylight
21 Dec - 11:43:59 10° WSW 11:50:06 36° S 11:54:09 10° ESE daylight
21 Dec - 13:57:37 10° WSW 14:00:55 20° SSW 14:03:44 10° SSE daylight
22 Dec - 08:15:26 10° SSW 08:24:19 25° SSE 08:30:16 10° ESE daylight
22 Dec - 10:28:43 10° WSW 10:36:36 37° S 10:41:29 10° ESE daylight
22 Dec - 12:42:50 10° WSW 12:47:53 31° SSW 12:51:30 10° SE daylight
23 Dec - 07:01:09 10° SSW 07:09:52 20° SSE 07:16:13 10° ESE visible
23 Dec - 09:13:11 10° SW 09:22:47 35° S 09:28:38 10° ESE daylight
23 Dec - 11:27:38 10° WSW 11:34:37 39° S 11:39:03 10° ESE daylight
23 Dec - 13:41:59 10° WSW 13:45:25 19° SSW 13:48:15 10° SSE daylight
